Location: Bord�res
(43.2000°N, 0.2167°W)
Time: 13:44:18
(UTC+00:00)

CZ-2C R/B - Pass Details

Date: 03 March 2021
Orbit: 783 x 871 km, 98.2° (Epoch: 14 April)

Event Time Altitude Azimuth Distance (km) Brightness Sun altitude
Rises 19:42:14 0° 8° (N) 3,429 5.9 -20.7°
Reaches altitude 10° 19:44:42 10° 3° (N) 2,477 5.2 -21.1°
Maximum altitude 19:49:59 51° 290° (WNW) 1,043 3.5 -22.1°
Drops below altitude 10° 19:55:08 10° 215° (SW) 2,405 5.3 -23.0°
Sets 19:57:29 0° 210° (SSW) 3,320 6.0 -23.4°
